When you browse on this site, cookies collect data to enhance your experience and personalize the content and advertising you see.
Visit our Privacy Policy to learn more. By continuing to use the site, you agree to this use of cookies and data.
  • en France
  • Liste des pays
  • À 7 jours
  • Température de l'eau
  • Carte météo
  • Widgets météo
  • user-avatar
    Se connecter

    Météo par heure à Batna

    Ce jour, 5 Juin, Vendredi

    Heure Température Précipitation Vent Pression Humidité
    00:00 +20°C° 0 mm 2 m/s 667 mmHg 52%
    01:00 +19°C° 0 mm 2 m/s 666 mmHg 56%
    02:00 +18°C° 0 mm 3 m/s 666 mmHg 60%
    03:00 +17°C° 0 mm 3 m/s 666 mmHg 63%
    04:00 +16°C° 0 mm 5 m/s 666 mmHg 60%
    05:00 +16°C° 0 mm 6 m/s 666 mmHg 57%
    06:00 +16°C° 0 mm 7 m/s 666 mmHg 54%
    07:00 +17°C° 0 mm 8 m/s 667 mmHg 48%
    08:00 +18°C° 0 mm 9 m/s 668 mmHg 41%
    09:00 +19°C° 0 mm 10 m/s 668 mmHg 34%
    10:00 +21°C° 0 mm 9 m/s 669 mmHg 33%
    11:00 +22°C° 0 mm 9 m/s 669 mmHg 31%
    12:00 +23°C° 0 mm 8 m/s 670 mmHg 30%
    13:00 +23°C° 0 mm 7 m/s 670 mmHg 29%
    14:00 +23°C° 0 mm 7 m/s 670 mmHg 29%
    15:00 +24°C° 0 mm 6 m/s 670 mmHg 29%
    16:00 +23°C° 0 mm 5 m/s 670 mmHg 29%
    17:00 +23°C° 0 mm 5 m/s 670 mmHg 30%
    18:00 +22°C° 0 mm 4 m/s 670 mmHg 31%
    19:00 +21°C° 0 mm 3 m/s 670 mmHg 36%
    20:00 +19°C° 0 mm 2 m/s 670 mmHg 41%
    21:00 +19°C° 0 mm 1 m/s 670 mmHg 46%
    22:00 +19°C° 0 mm 1 m/s 670 mmHg 46%
    23:00 +18°C° 0 mm 1 m/s 670 mmHg 47%

    Demain, 6 Juin, Samedi

    Heure Température Précipitation Vent Pression Humidité
    00:00 +18°C° 0 mm 1 m/s 670 mmHg 47%
    01:00 +18°C° 0 mm 1 m/s 670 mmHg 50%
    02:00 +15°C° 0 mm 0 m/s 669 mmHg 52%
    03:00 +15°C° 0 mm 0 m/s 669 mmHg 55%
    04:00 +16°C° 0 mm 0 m/s 670 mmHg 50%
    05:00 +17°C° 0 mm 0 m/s 670 mmHg 46%
    06:00 +18°C° 0 mm 0 m/s 671 mmHg 41%
    07:00 +21°C° 0 mm 1 m/s 671 mmHg 36%
    08:00 +23°C° 0 mm 2 m/s 671 mmHg 31%
    09:00 +24°C° 0 mm 2 m/s 672 mmHg 27%
    10:00 +25°C° 0 mm 3 m/s 672 mmHg 24%
    11:00 +26°C° 0 mm 4 m/s 672 mmHg 22%
    12:00 +27°C° 0 mm 5 m/s 672 mmHg 20%
    13:00 +28°C° 0 mm 5 m/s 672 mmHg 20%
    14:00 +28°C° 0 mm 6 m/s 671 mmHg 20%
    15:00 +29°C° 0 mm 7 m/s 671 mmHg 19%
    16:00 +28°C° 0 mm 5 m/s 671 mmHg 20%
    17:00 +28°C° 0 mm 4 m/s 670 mmHg 21%
    18:00 +27°C° 0 mm 3 m/s 670 mmHg 23%
    19:00 +26°C° 0 mm 2 m/s 670 mmHg 24%
    20:00 +25°C° 0 mm 2 m/s 670 mmHg 26%
    21:00 +24°C° 0 mm 1 m/s 670 mmHg 28%
    22:00 +24°C° 0 mm 2 m/s 669 mmHg 29%
    23:00 +24°C° 0 mm 2 m/s 669 mmHg 30%

    Après-demain, 7 Juin, Dimanche

    Heure Température Précipitation Vent Pression Humidité
    00:00 +23°C° 0 mm 2 m/s 668 mmHg 31%
    01:00 +23°C° 0 mm 2 m/s 668 mmHg 32%
    02:00 +23°C° 0 mm 2 m/s 668 mmHg 33%
    03:00 +23°C° 0 mm 2 m/s 668 mmHg 34%
    04:00 +24°C° 0 mm 2 m/s 668 mmHg 33%
    05:00 +24°C° 0 mm 2 m/s 668 mmHg 33%
    06:00 +25°C° 0 mm 3 m/s 668 mmHg 32%
    07:00 +26°C° 0.2 mm 3 m/s 668 mmHg 32%
    08:00 +26°C° 0.2 mm 4 m/s 669 mmHg 33%
    09:00 +27°C° 0.2 mm 4 m/s 669 mmHg 33%
    10:00 +28°C° 0.1 mm 5 m/s 669 mmHg 32%
    11:00 +29°C° 0.1 mm 5 m/s 669 mmHg 30%
    12:00 +30°C° 0.1 mm 6 m/s 669 mmHg 29%
    13:00 +30°C° 0 mm 5 m/s 669 mmHg 30%
    14:00 +29°C° 0 mm 5 m/s 669 mmHg 30%
    15:00 +29°C° 0 mm 5 m/s 669 mmHg 31%
    16:00 +28°C° 0 mm 5 m/s 669 mmHg 36%
    17:00 +26°C° 0 mm 5 m/s 668 mmHg 41%
    18:00 +25°C° 0 mm 5 m/s 668 mmHg 46%
    19:00 +22°C° 0 mm 4 m/s 668 mmHg 51%
    20:00 +21°C° 0 mm 4 m/s 668 mmHg 56%
    21:00 +19°C° 0 mm 4 m/s 668 mmHg 60%
    22:00 +19°C° 0 mm 3 m/s 668 mmHg 61%
    23:00 +19°C° 0 mm 3 m/s 668 mmHg 62%

    8 Juin, Lundi

    Heure Température Précipitation Vent Pression Humidité
    00:00 +18°C° 0 mm 2 m/s 668 mmHg 63%
    01:00 +18°C° 0 mm 2 m/s 668 mmHg 63%
    02:00 +19°C° 0 mm 1 m/s 667 mmHg 64%
    03:00 +18°C° 0 mm 1 m/s 667 mmHg 64%
    04:00 +19°C° 0 mm 1 m/s 667 mmHg 59%
    05:00 +20°C° 0 mm 1 m/s 668 mmHg 54%
    06:00 +19°C° 0 mm 0 m/s 668 mmHg 49%
    07:00 +22°C° 0 mm 1 m/s 669 mmHg 42%
    08:00 +24°C° 0 mm 1 m/s 669 mmHg 36%
    09:00 +25°C° 0 mm 1 m/s 670 mmHg 30%
    10:00 +26°C° 0 mm 2 m/s 670 mmHg 27%
    11:00 +28°C° 0 mm 3 m/s 670 mmHg 25%
    12:00 +29°C° 0 mm 4 m/s 670 mmHg 23%
    13:00 +29°C° 0 mm 5 m/s 669 mmHg 23%
    14:00 +29°C° 0 mm 6 m/s 669 mmHg 23%
    15:00 +29°C° 0 mm 7 m/s 669 mmHg 23%
    16:00 +28°C° 0 mm 6 m/s 669 mmHg 28%
    17:00 +27°C° 0 mm 6 m/s 669 mmHg 32%
    18:00 +25°C° 0 mm 5 m/s 669 mmHg 37%
    19:00 +22°C° 0.9 mm 4 m/s 669 mmHg 49%
    20:00 +20°C° 0.9 mm 3 m/s 669 mmHg 62%
    21:00 +18°C° 0.9 mm 2 m/s 669 mmHg 74%
    22:00 +18°C° 0.3 mm 2 m/s 669 mmHg 74%
    23:00 +18°C° 0.3 mm 2 m/s 668 mmHg 74%

    9 Juin, Mardi

    Heure Température Précipitation Vent Pression Humidité
    00:00 +18°C° 0.3 mm 2 m/s 668 mmHg 74%
    01:00 +18°C° 0.1 mm 2 m/s 668 mmHg 71%
    02:00 +19°C° 0.1 mm 1 m/s 668 mmHg 68%
    03:00 +20°C° 0.1 mm 1 m/s 668 mmHg 65%
    04:00 +20°C° 0 mm 1 m/s 669 mmHg 65%
    05:00 +20°C° 0 mm 1 m/s 669 mmHg 65%
    06:00 +20°C° 0 mm 1 m/s 669 mmHg 65%
    07:00 +20°C° 0 mm 2 m/s 669 mmHg 58%
    08:00 +21°C° 0 mm 2 m/s 670 mmHg 52%
    09:00 +23°C° 0 mm 2 m/s 670 mmHg 45%
    10:00 +24°C° 0 mm 3 m/s 670 mmHg 40%
    11:00 +25°C° 0 mm 4 m/s 670 mmHg 35%
    12:00 +26°C° 0 mm 4 m/s 671 mmHg 30%
    13:00 +27°C° 0 mm 5 m/s 671 mmHg 28%
    14:00 +27°C° 0 mm 5 m/s 671 mmHg 26%
    15:00 +27°C° 0 mm 5 m/s 670 mmHg 24%
    16:00 +26°C° 0.2 mm 5 m/s 670 mmHg 34%
    17:00 +23°C° 0.2 mm 5 m/s 670 mmHg 43%
    18:00 +22°C° 0.2 mm 5 m/s 670 mmHg 52%
    19:00 +21°C° 0.1 mm 4 m/s 670 mmHg 60%
    20:00 +19°C° 0.1 mm 4 m/s 671 mmHg 67%
    21:00 +18°C° 0.1 mm 3 m/s 671 mmHg 75%
    22:00 +18°C° 0 mm 3 m/s 671 mmHg 76%
    23:00 +18°C° 0 mm 3 m/s 671 mmHg 77%

    10 Juin, Mercredi

    Heure Température Précipitation Vent Pression Humidité
    00:00 +17°C° 0 mm 3 m/s 671 mmHg 78%
    01:00 +17°C° 0 mm 2 m/s 670 mmHg 77%
    02:00 +17°C° 0 mm 2 m/s 670 mmHg 75%
    03:00 +18°C° 0 mm 1 m/s 670 mmHg 74%
    04:00 +18°C° 0 mm 1 m/s 670 mmHg 71%
    05:00 +19°C° 0 mm 1 m/s 671 mmHg 69%
    06:00 +18°C° 0 mm 2 m/s 671 mmHg 66%
    07:00 +19°C° 0 mm 2 m/s 671 mmHg 62%
    08:00 +20°C° 0 mm 3 m/s 672 mmHg 59%
    09:00 +21°C° 0 mm 4 m/s 672 mmHg 55%
    10:00 +22°C° 0 mm 4 m/s 672 mmHg 50%
    11:00 +23°C° 0 mm 4 m/s 672 mmHg 44%
    12:00 +26°C° 0 mm 3 m/s 672 mmHg 39%
    13:00 +25°C° 0.2 mm 3 m/s 672 mmHg 40%
    14:00 +25°C° 0.2 mm 3 m/s 671 mmHg 41%
    15:00 +25°C° 0.2 mm 3 m/s 671 mmHg 43%
    16:00 +25°C° 0.4 mm 4 m/s 671 mmHg 45%
    17:00 +23°C° 0.4 mm 4 m/s 670 mmHg 47%
    18:00 +22°C° 0.4 mm 5 m/s 670 mmHg 49%
    19:00 +21°C° 1.1 mm 5 m/s 670 mmHg 59%
    20:00 +19°C° 1.1 mm 6 m/s 669 mmHg 69%
    21:00 +16°C° 1.1 mm 7 m/s 669 mmHg 79%
    22:00 +16°C° 0.1 mm 6 m/s 669 mmHg 80%
    23:00 +16°C° 0.1 mm 6 m/s 669 mmHg 80%
    Voir plus